Погода в Маразлиевке

Украина / Одесская область     46°05′54″N   30°02′57″E
темп.,
°C
ветер,
м/с
пор.,
м/с
влажн.,
%
обл.,
%
осадки,
мм/ч
давл.,
гПа
погр.,
м
31 июля, сб
сб3100:00+23зюз22680 0.0 101128
03:00+23зсз22672 0.0 101117
06:00+22ссв11690 0.0 101111
09:00+28юв22460 0.0 1011654
12:00+32ююв43360 0.0 10111817
15:00+32ююв643630 0.0 10101341
18:00+26ююв465784 0.4 1011258
21:00+26ю366230 0.4 1011178
1 августа, вс
вс100:00+23зюз48737 0.1 1012156
03:00+22юз347487 0.3 101158
06:00+22ю347743 0.0 101147
09:00+28ю45512 0.0 1012669
12:00+31ю66420 0.0 10121111
15:00+32ю65410 0.0 1011923
18:00+30ююв68460 0.0 1010515
21:00+26ю611700 0.0 1011285
2 августа, пн
пн200:00+24ю49780 0.0 1011209
03:00+23ю48812 0.0 1010160
06:00+23ююз410810 0.0 1011239
09:00+29ю68535 0.0 1010500
12:00+31ю910462 0.0 1010718
15:00+28ю9135727 0.0 1009489
18:00+29ю913530 0.0 1008486
21:00+26ю8127241 0.0 1008294
3 августа, вт
вт300:00+24юз59730 0.0 1008182
03:00+23зсз34690 0.0 101065
06:00+22с5108196 0.0 1011293
09:00+24с696844 0.0 1012441
12:00+29с66471 0.0 10131201
15:00+32с55339 0.0 10132016
18:00+31ссз653376 0.0 10131879
21:00+25с46462 0.0 101490
4 августа, ср
ср400:00+23с48545 0.0 1015153
03:00+21св4861100 0.0 1015149
06:00+21ссз1262100 0.1 101716
09:00+25зсз1151100 0.1 1017434
12:00+29сз11365 0.0 10161594
15:00+31ююв543515 0.0 10152152
18:00+29вюв55415 0.0 1016826
21:00+23ю3665100 0.0 1016105